Date String (YYYY-MM-DD hh:mm:ss) UTC,Instrument flags,Ambient pressure (hPa),Sample flow (lpm),Bypass flow (lpm),Sample temperature (°C),Ambient temperature (°C),ASC tube jacket temperature (°C),LED temperature (°C),Box temperature (°C),Sample RH (%),Span deviation,Mass concentration (μg/m³),Mass concentration (μg/m³),Mass concentration (μg/m³)
DateTimeUTC,F1_M11,P_M11,Q1_M11,Q2_M11,T1_M11,T2_M11,T3_M11,T4_M11,T5_M11,U1_M11,ZSPAN_M11,X0_M11,X2_M11,X1_M11
2021-12-25 23:00:00,,0818.7,5.00,0.00,23.6,23.0,00.0,32.7,25.3,07.2,0000.0,0000.51,0000.42,0000.37
2021-12-25 23:01:00,,0818.7,5.00,0.00,23.6,22.9,00.0,32.7,25.3,07.2,0000.0,0000.51,0000.42,0000.38
2021-12-25 23:02:00,,0818.7,5.00,0.00,23.6,22.9,00.0,32.7,25.3,07.2,0000.0,0000.50,0000.42,0000.38
2021-12-25 23:03:00,,0818.7,5.01,0.00,23.6,23.0,00.0,32.7,25.3,07.2,0000.0,0000.51,0000.42,0000.38
2021-12-25 23:04:00,,0818.8,4.99,0.00,23.6,23.0,00.0,32.7,25.3,07.2,0000.0,0000.52,0000.43,0000.39
2021-12-25 23:05:00,,0818.8,5.01,0.00,23.6,22.9,00.0,32.7,25.2,07.3,0000.0,0000.52,0000.43,0000.39
2021-12-25 23:06:00,,0818.8,5.00,0.00,23.6,22.9,00.0,32.7,25.2,07.3,0000.0,0000.53,0000.44,0000.39
2021-12-25 23:07:00,,0818.7,5.01,0.00,23.6,23.0,00.0,32.7,25.3,07.3,0000.0,0000.57,0000.46,0000.39
2021-12-25 23:08:00,,0818.7,4.98,0.00,23.6,23.0,00.0,32.7,25.3,07.4,0000.0,0000.68,0000.47,0000.39
2021-12-25 23:09:00,,0818.7,5.01,0.00,23.7,23.0,00.0,32.7,25.3,07.4,0000.0,0000.67,0000.46,0000.39
2021-12-25 23:10:00,,0818.7,5.01,0.00,23.7,23.0,00.0,32.7,25.4,07.4,0000.0,0000.69,0000.46,0000.38
2021-12-25 23:11:00,,0818.7,4.99,0.00,23.7,23.0,00.0,32.7,25.4,07.3,0000.0,0000.68,0000.45,0000.38
2021-12-25 23:12:00,,0818.7,5.00,0.00,23.7,23.0,00.0,32.7,25.4,07.4,0000.0,0000.67,0000.44,0000.38
2021-12-25 23:13:00,,0818.7,5.01,0.00,23.7,23.0,00.0,32.7,25.4,07.4,0000.0,0000.70,0000.46,0000.38
2021-12-25 23:14:00,,0818.7,5.01,0.00,23.7,23.0,00.0,32.7,25.4,07.3,0000.0,0000.71,0000.46,0000.39
2021-12-25 23:15:00,,0818.7,5.00,0.00,23.7,23.0,00.0,32.7,25.3,07.4,0000.0,0000.70,0000.45,0000.38
2021-12-25 23:16:00,,0818.6,5.00,0.00,23.7,23.0,00.0,32.7,25.3,07.4,0000.0,0000.72,0000.46,0000.39
2021-12-25 23:17:00,,0818.5,4.99,0.00,23.6,23.0,00.0,32.7,25.3,07.4,0000.0,0000.78,0000.47,0000.39
2021-12-25 23:18:00,,0818.5,5.00,0.00,23.6,23.0,00.0,32.7,25.3,07.3,0000.0,0000.74,0000.45,0000.38
2021-12-25 23:19:00,,0818.6,5.00,0.00,23.6,23.0,00.0,32.7,25.3,07.3,0000.0,0000.63,0000.44,0000.39
2021-12-25 23:20:00,,0818.6,5.01,0.00,23.6,23.0,00.0,32.7,25.3,07.4,0000.0,0000.78,0000.46,0000.39
2021-12-25 23:21:00,,0818.7,4.98,0.00,23.6,23.0,00.0,32.7,25.3,07.5,0000.0,0001.24,0000.46,0000.40
2021-12-25 23:22:00,,0818.6,5.00,0.00,23.7,23.0,00.0,32.7,25.3,07.5,0000.0,0001.22,0000.46,0000.40
2021-12-25 23:23:00,,0818.6,5.01,0.00,23.7,23.0,00.0,32.7,25.3,07.4,0000.0,0001.20,0000.45,0000.40
2021-12-25 23:24:00,,0818.6,4.99,0.00,23.7,23.0,00.0,32.7,25.3,07.3,0000.0,0001.18,0000.44,0000.39
2021-12-25 23:25:00,,0818.6,5.01,0.00,23.7,22.9,00.0,32.7,25.4,07.3,0000.0,0001.17,0000.44,0000.39
2021-12-25 23:26:00,,0818.7,4.99,0.00,23.6,22.9,00.0,32.7,25.2,07.3,0000.0,0001.21,0000.44,0000.38
2021-12-25 23:27:00,,0818.7,5.01,0.00,23.6,22.9,00.0,32.7,25.2,07.4,0000.0,0001.23,0000.45,0000.38
2021-12-25 23:28:00,,0818.7,5.00,0.00,23.6,22.9,00.0,32.7,25.2,07.4,0000.0,0001.19,0000.45,0000.38
2021-12-25 23:29:00,,0818.7,4.98,0.00,23.6,22.9,00.0,32.7,25.3,07.4,0000.0,0001.17,0000.44,0000.38
2021-12-25 23:30:00,,0818.8,5.01,0.00,23.6,22.9,00.0,32.7,25.2,07.5,0000.0,0001.17,0000.44,0000.38
2021-12-25 23:31:00,,0818.7,4.98,0.00,23.6,22.9,00.0,32.7,25.3,07.5,0000.0,0001.15,0000.43,0000.37
2021-12-25 23:32:00,,0818.7,5.02,0.00,23.6,22.9,00.0,32.6,25.2,07.5,0000.0,0000.57,0000.42,0000.37
2021-12-25 23:33:00,,0818.7,4.99,0.00,23.6,22.9,00.0,32.6,25.2,07.5,0000.0,0000.58,0000.42,0000.37
2021-12-25 23:34:00,,0818.8,5.00,0.00,23.6,22.9,00.0,32.6,25.2,07.5,0000.0,0000.57,0000.42,0000.36
2021-12-25 23:35:00,,0818.8,5.01,0.00,23.6,22.9,00.0,32.6,25.2,07.5,0000.0,0000.58,0000.42,0000.37
2021-12-25 23:36:00,,0818.8,4.99,0.00,23.6,22.9,00.0,32.7,25.2,07.5,0000.0,0000.56,0000.42,0000.36
2021-12-25 23:37:00,,0818.8,5.02,0.00,23.6,22.9,00.0,32.7,25.3,07.5,0000.0,0000.52,0000.41,0000.37
2021-12-25 23:38:00,,0818.8,5.00,0.00,23.7,22.9,00.0,32.7,25.3,07.5,0000.0,0000.50,0000.41,0000.37
2021-12-25 23:39:00,,0818.8,5.00,0.00,23.7,22.9,00.0,32.7,25.4,07.6,0000.0,0000.47,0000.40,0000.37
2021-12-25 23:40:00,,0818.9,5.00,0.00,23.7,22.9,00.0,32.7,25.3,07.6,0000.0,0000.47,0000.40,0000.38
2021-12-25 23:41:00,,0818.9,5.01,0.00,23.7,22.9,00.0,32.7,25.3,07.6,0000.0,0000.47,0000.40,0000.38
2021-12-25 23:42:00,,0818.9,4.99,0.00,23.7,23.0,00.0,32.7,25.4,07.5,0000.0,0000.86,0000.41,0000.39
2021-12-25 23:43:00,,0818.9,5.02,0.00,23.7,23.0,00.0,32.7,25.4,07.6,0000.0,0001.36,0000.42,0000.40
2021-12-25 23:44:00,,0818.9,4.99,0.00,23.7,23.0,00.0,32.7,25.4,07.6,0000.0,0001.35,0000.41,0000.40
2021-12-25 23:45:00,,0818.9,5.01,0.00,23.7,22.9,00.0,32.7,25.4,07.6,0000.0,0001.35,0000.42,0000.41
2021-12-25 23:46:00,,0819.0,4.99,0.00,23.7,22.9,00.0,32.7,25.4,07.6,0000.0,0001.38,0000.43,0000.42
2021-12-25 23:47:00,,0819.0,5.00,0.00,23.7,22.9,00.0,32.7,25.4,07.6,0000.0,0001.47,0000.47,0000.43
2021-12-25 23:48:00,,0818.9,5.01,0.00,23.7,23.0,00.0,32.7,25.4,07.6,0000.0,0001.50,0000.47,0000.42
2021-12-25 23:49:00,,0819.0,5.00,0.00,23.7,23.0,00.0,32.7,25.4,07.6,0000.0,0001.49,0000.47,0000.42
2021-12-25 23:50:00,,0818.9,5.01,0.00,23.7,23.0,00.0,32.7,25.4,07.6,0000.0,0001.55,0000.50,0000.43
2021-12-25 23:51:00,,0819.0,4.99,0.00,23.7,23.0,00.0,32.7,25.4,07.6,0000.0,0001.57,0000.51,0000.42
2021-12-25 23:52:00,,0819.0,4.99,0.00,23.7,23.0,00.0,32.7,25.4,07.6,0000.0,0001.57,0000.51,0000.42
2021-12-25 23:53:00,,0818.9,4.99,0.00,23.8,23.0,00.0,32.7,25.4,07.7,0000.0,0001.14,0000.51,0000.43
2021-12-25 23:54:00,,0818.9,5.00,0.00,23.8,23.0,00.0,32.7,25.4,07.6,0000.0,0000.70,0000.52,0000.42
2021-12-25 23:55:00,,0819.0,5.01,0.00,23.8,23.0,00.0,32.7,25.4,07.7,0000.0,0000.71,0000.53,0000.42
2021-12-25 23:56:00,,0819.0,4.99,0.00,23.8,23.0,00.0,32.7,25.4,07.7,0000.0,0000.72,0000.53,0000.43
2021-12-25 23:57:00,,0819.0,4.99,0.00,23.8,23.0,00.0,32.7,25.4,07.7,0000.0,0000.71,0000.53,0000.43
2021-12-25 23:58:00,,0818.9,5.01,0.00,23.8,22.9,00.0,32.7,25.4,07.7,0000.0,0000.63,0000.51,0000.43
2021-12-25 23:59:00,,0819.0,4.99,0.00,23.8,22.9,00.0,32.7,25.4,07.7,0000.0,0000.60,0000.50,0000.44
